TimeMDT,TemperatureF,Dew PointF,Humidity,Sea Level PressureIn,VisibilityMPH,Wind Direction,Wind SpeedMPH,Gust SpeedMPH,PrecipitationIn,Events,Conditions,WindDirDegrees,DateUTC
12:53 AM,77.0,37.0,24,29.75,10.0,East,3.5,-,N/A,,Clear,100,2013-07-23 06:53:00
1:53 AM,73.9,37.9,27,29.76,10.0,East,13.8,-,N/A,,Clear,90,2013-07-23 07:53:00
2:53 AM,73.9,37.0,26,29.76,10.0,SSE,5.8,-,N/A,,Clear,150,2013-07-23 08:53:00
3:53 AM,68.0,37.0,32,29.80,10.0,ESE,5.8,-,N/A,,Clear,120,2013-07-23 09:53:00
4:53 AM,66.9,34.0,30,29.80,10.0,SE,6.9,-,N/A,,Clear,130,2013-07-23 10:53:00
5:53 AM,63.0,36.0,37,29.83,10.0,SE,5.8,-,N/A,,Clear,130,2013-07-23 11:53:00
6:53 AM,64.9,35.1,33,29.85,10.0,ENE,4.6,-,N/A,,Clear,70,2013-07-23 12:53:00
7:53 AM,72.0,36.0,27,29.86,10.0,SE,5.8,-,N/A,,Clear,130,2013-07-23 13:53:00
8:53 AM,75.0,37.0,25,29.88,10.0,SSE,4.6,-,N/A,,Clear,150,2013-07-23 14:53:00
9:53 AM,79.0,35.1,20,29.88,10.0,SSE,5.8,-,N/A,,Clear,150,2013-07-23 15:53:00
10:53 AM,82.9,35.1,18,29.88,10.0,South,9.2,-,N/A,,Clear,170,2013-07-23 16:53:00
11:53 AM,84.9,30.9,14,29.87,10.0,South,6.9,-,N/A,,Clear,170,2013-07-23 17:53:00
12:53 PM,87.1,33.1,15,29.84,10.0,SSW,4.6,-,N/A,,Clear,200,2013-07-23 18:53:00
1:53 PM,91.9,34.0,13,29.81,10.0,SSE,5.8,-,N/A,,Clear,160,2013-07-23 19:53:00
2:53 PM,96.1,30.0,10,29.78,10.0,Variable,3.5,-,N/A,,Clear,0,2013-07-23 20:53:00
3:53 PM,98.1,25.0,7,29.76,10.0,West,5.8,-,N/A,,Clear,260,2013-07-23 21:53:00
4:53 PM,98.1,24.1,7,29.74,10.0,West,10.4,-,N/A,,Clear,280,2013-07-23 22:53:00
5:53 PM,95.0,25.0,8,29.74,10.0,NW,9.2,-,N/A,,Clear,310,2013-07-23 23:53:00
6:53 PM,95.0,21.0,7,29.72,10.0,NW,6.9,-,N/A,,Clear,310,2013-07-24 00:53:00
7:53 PM,90.0,23.0,9,29.73,10.0,NNW,6.9,-,N/A,,Clear,340,2013-07-24 01:53:00
8:53 PM,84.9,37.0,18,29.76,10.0,NW,3.5,-,N/A,,Clear,320,2013-07-24 02:53:00
9:53 PM,82.9,36.0,19,29.80,10.0,North,10.4,-,N/A,,Clear,350,2013-07-24 03:53:00
10:53 PM,82.9,39.0,21,29.82,10.0,North,15.0,-,N/A,,Clear,350,2013-07-24 04:53:00
11:53 PM,82.0,39.0,22,29.83,10.0,NNE,4.6,-,N/A,,Clear,20,2013-07-24 05:53:00